When you browse on this site, cookies collect data to enhance your experience and personalize the content and advertising you see.
Visit our Privacy Policy to learn more. By continuing to use the site, you agree to this use of cookies and data.
  • Em Portugal
  • Lista de países
  • Para 7 dias
  • Temperatura da água
  • Mapas de satélite
  • Mapa do tempo
  • Widgets de tempo
  • user-avatar
    Iniciar Sessão

    Previsão horária em Gostkow

    Hoje, 19 Novembro, Segunda-feira

    Tempo Temperatura Precipitação Vento Pressão Humidade
    00:00 -1°C° 0.1 mm 1 m/s 719 mmHg 77%
    01:00 -1°C° 0 mm 1 m/s 718 mmHg 88%
    02:00 -3°C° 0.1 mm 2 m/s 718 mmHg 89%
    03:00 -3°C° 0.1 mm 2 m/s 718 mmHg 90%
    04:00 -3°C° 0.1 mm 2 m/s 718 mmHg 91%
    05:00 -2°C° 0.1 mm 3 m/s 718 mmHg 91%
    06:00 -3°C° 0.1 mm 4 m/s 718 mmHg 90%
    07:00 -2°C° 0 mm 3 m/s 717 mmHg 90%
    08:00 -3°C° 0.1 mm 4 m/s 718 mmHg 87%
    09:00 -2°C° 0.1 mm 5 m/s 718 mmHg 84%
    10:00 -2°C° 0.1 mm 5 m/s 718 mmHg 81%
    11:00 -3°C° 0 mm 6 m/s 718 mmHg 78%
    12:00 -3°C° 0 mm 6 m/s 718 mmHg 74%
    13:00 -2°C° 0 mm 6 m/s 718 mmHg 71%
    14:00 -2°C° 0 mm 5 m/s 718 mmHg 72%
    15:00 -2°C° 0 mm 5 m/s 718 mmHg 74%
    16:00 -4°C° 0 mm 5 m/s 718 mmHg 75%
    17:00 -4°C° 0 mm 5 m/s 718 mmHg 76%
    18:00 -4°C° 0 mm 5 m/s 718 mmHg 76%
    19:00 -5°C° 0 mm 6 m/s 718 mmHg 76%
    20:00 -5°C° 0 mm 5 m/s 718 mmHg 77%
    21:00 -5°C° 0 mm 5 m/s 718 mmHg 78%
    22:00 -6°C° 0 mm 5 m/s 718 mmHg 78%
    23:00 -6°C° 0 mm 5 m/s 718 mmHg 80%

    Amanhã, 20 Novembro, Terça-feira

    Tempo Temperatura Precipitação Vento Pressão Humidade
    00:00 -6°C° 0 mm 5 m/s 718 mmHg 81%
    01:00 -7°C° 0 mm 5 m/s 717 mmHg 82%
    02:00 -6°C° 0 mm 5 m/s 717 mmHg 82%
    03:00 -6°C° 0 mm 5 m/s 717 mmHg 82%
    04:00 -6°C° 0 mm 5 m/s 717 mmHg 82%
    05:00 -6°C° 0 mm 5 m/s 716 mmHg 82%
    06:00 -5°C° 0 mm 5 m/s 716 mmHg 83%
    07:00 -5°C° 0 mm 5 m/s 716 mmHg 84%
    08:00 -5°C° 0 mm 5 m/s 716 mmHg 81%
    09:00 -4°C° 0 mm 6 m/s 716 mmHg 79%
    10:00 -4°C° 0 mm 6 m/s 715 mmHg 77%
    11:00 -3°C° 0.1 mm 6 m/s 715 mmHg 76%
    12:00 -3°C° 0.1 mm 6 m/s 715 mmHg 76%
    13:00 -3°C° 0.1 mm 6 m/s 714 mmHg 75%
    14:00 -2°C° 0.3 mm 5 m/s 714 mmHg 77%
    15:00 -2°C° 0.3 mm 5 m/s 714 mmHg 78%
    16:00 -2°C° 0.3 mm 5 m/s 714 mmHg 80%
    17:00 -2°C° 0.4 mm 5 m/s 714 mmHg 82%
    18:00 -2°C° 0.4 mm 4 m/s 714 mmHg 84%
    19:00 -3°C° 0.4 mm 4 m/s 714 mmHg 87%
    20:00 -3°C° 0 mm 4 m/s 714 mmHg 88%
    21:00 -2°C° 0 mm 3 m/s 715 mmHg 89%
    22:00 -2°C° 0 mm 3 m/s 715 mmHg 90%
    23:00 -2°C° 0 mm 3 m/s 715 mmHg 90%

    Depois de amanhã, 21 Novembro, Quarta-feira

    Tempo Temperatura Precipitação Vento Pressão Humidade
    00:00 -2°C° 0 mm 3 m/s 715 mmHg 91%
    01:00 -2°C° 0 mm 2 m/s 715 mmHg 92%
    02:00 -2°C° 0 mm 2 m/s 716 mmHg 93%
    03:00 -2°C° 0 mm 2 m/s 716 mmHg 93%
    04:00 -1°C° 0 mm 2 m/s 716 mmHg 93%
    05:00 -1°C° 0 mm 2 m/s 716 mmHg 93%
    06:00 -1°C° 0 mm 2 m/s 716 mmHg 93%
    07:00 -1°C° 0 mm 2 m/s 717 mmHg 93%
    08:00 -1°C° 0 mm 2 m/s 717 mmHg 92%
    09:00 -1°C° 0 mm 3 m/s 718 mmHg 91%
    10:00 0°C° 0 mm 3 m/s 718 mmHg 90%
    11:00 0°C° 0 mm 3 m/s 718 mmHg 89%
    12:00 0°C° 0 mm 3 m/s 718 mmHg 88%
    13:00 0°C° 0 mm 3 m/s 719 mmHg 88%
    14:00 0°C° 0 mm 3 m/s 719 mmHg 89%
    15:00 0°C° 0 mm 3 m/s 719 mmHg 89%
    16:00 -1°C° 0 mm 3 m/s 719 mmHg 90%
    17:00 -1°C° 0 mm 3 m/s 719 mmHg 90%
    18:00 -1°C° 0 mm 3 m/s 719 mmHg 90%
    19:00 -1°C° 0 mm 3 m/s 719 mmHg 90%
    20:00 -2°C° 0 mm 4 m/s 720 mmHg 90%
    21:00 -3°C° 0 mm 4 m/s 720 mmHg 89%
    22:00 -3°C° 0 mm 4 m/s 720 mmHg 89%
    23:00 -3°C° 0 mm 4 m/s 720 mmHg 89%

    22 Novembro, Quinta-feira

    Tempo Temperatura Precipitação Vento Pressão Humidade
    00:00 -3°C° 0 mm 4 m/s 720 mmHg 89%
    01:00 -3°C° 0 mm 4 m/s 720 mmHg 88%
    02:00 -4°C° 0 mm 3 m/s 720 mmHg 89%
    03:00 -4°C° 0 mm 3 m/s 720 mmHg 90%
    04:00 -4°C° 0 mm 3 m/s 720 mmHg 91%
    05:00 -5°C° 0 mm 3 m/s 720 mmHg 91%
    06:00 -5°C° 0 mm 3 m/s 720 mmHg 91%
    07:00 -5°C° 0 mm 3 m/s 720 mmHg 90%
    08:00 -4°C° 0 mm 3 m/s 720 mmHg 88%
    09:00 -2°C° 0 mm 3 m/s 721 mmHg 86%
    10:00 -1°C° 0 mm 2 m/s 721 mmHg 84%
    11:00 -1°C° 0 mm 2 m/s 721 mmHg 83%
    12:00 +1°C° 0 mm 2 m/s 721 mmHg 82%
    13:00 +2°C° 0 mm 2 m/s 721 mmHg 82%
    14:00 +1°C° 0 mm 2 m/s 721 mmHg 85%
    15:00 +1°C° 0 mm 2 m/s 721 mmHg 88%
    16:00 -1°C° 0 mm 2 m/s 721 mmHg 91%
    17:00 -1°C° 0 mm 2 m/s 721 mmHg 91%
    18:00 -1°C° 0 mm 2 m/s 721 mmHg 92%
    19:00 -2°C° 0 mm 2 m/s 721 mmHg 92%
    20:00 -2°C° 0 mm 2 m/s 722 mmHg 92%
    21:00 -2°C° 0 mm 2 m/s 722 mmHg 92%
    22:00 0°C° 0 mm 1 m/s 722 mmHg 92%
    23:00 0°C° 0 mm 1 m/s 722 mmHg 92%

    23 Novembro, Sexta-feira

    Tempo Temperatura Precipitação Vento Pressão Humidade
    00:00 0°C° 0 mm 1 m/s 722 mmHg 91%
    01:00 0°C° 0 mm 1 m/s 722 mmHg 91%
    02:00 0°C° 0 mm 1 m/s 722 mmHg 91%
    03:00 0°C° 0 mm 1 m/s 722 mmHg 91%
    04:00 +1°C° 0 mm 1 m/s 722 mmHg 91%
    05:00 +1°C° 0 mm 1 m/s 722 mmHg 91%
    06:00 +1°C° 0 mm 1 m/s 723 mmHg 91%
    07:00 -1°C° 0 mm 2 m/s 723 mmHg 91%
    08:00 +1°C° 0 mm 2 m/s 723 mmHg 89%
    09:00 +2°C° 0 mm 2 m/s 723 mmHg 87%
    10:00 +3°C° 0 mm 2 m/s 724 mmHg 85%
    11:00 +4°C° 0 mm 2 m/s 723 mmHg 84%
    12:00 +4°C° 0 mm 2 m/s 723 mmHg 82%
    13:00 +5°C° 0 mm 2 m/s 723 mmHg 81%
    14:00 +4°C° 0 mm 2 m/s 723 mmHg 84%
    15:00 +3°C° 0 mm 2 m/s 723 mmHg 88%
    16:00 +3°C° 0 mm 2 m/s 722 mmHg 91%
    17:00 +2°C° 0 mm 2 m/s 722 mmHg 91%
    18:00 +2°C° 0 mm 2 m/s 722 mmHg 92%
    19:00 +2°C° 0 mm 2 m/s 722 mmHg 92%
    20:00 +2°C° 0 mm 2 m/s 722 mmHg 92%
    21:00 +2°C° 0 mm 2 m/s 722 mmHg 92%
    22:00 +2°C° 0 mm 2 m/s 722 mmHg 92%
    23:00 +1°C° 0 mm 3 m/s 721 mmHg 92%

    24 Novembro, Sábado

    Tempo Temperatura Precipitação Vento Pressão Humidade
    00:00 +1°C° 0 mm 3 m/s 721 mmHg 91%
    01:00 +1°C° 0 mm 3 m/s 721 mmHg 91%
    02:00 +1°C° 0 mm 3 m/s 720 mmHg 91%
    03:00 0°C° 0 mm 3 m/s 720 mmHg 91%
    04:00 +1°C° 0 mm 2 m/s 720 mmHg 91%
    05:00 +1°C° 0 mm 2 m/s 720 mmHg 91%
    06:00 +1°C° 0 mm 2 m/s 719 mmHg 91%
    07:00 +1°C° 0 mm 2 m/s 719 mmHg 91%
    08:00 +2°C° 0 mm 2 m/s 719 mmHg 88%
    09:00 +2°C° 0 mm 3 m/s 719 mmHg 85%
    10:00 +2°C° 0 mm 3 m/s 719 mmHg 83%
    11:00 +3°C° 0 mm 3 m/s 719 mmHg 81%
    12:00 +5°C° 0 mm 2 m/s 719 mmHg 79%
    13:00 +5°C° 0 mm 2 m/s 718 mmHg 78%
    14:00 +4°C° 0 mm 2 m/s 718 mmHg 81%
    15:00 +4°C° 0 mm 2 m/s 718 mmHg 84%
    16:00 +3°C° 0 mm 2 m/s 718 mmHg 87%
    17:00 +3°C° 0 mm 2 m/s 718 mmHg 88%
    18:00 +3°C° 0 mm 2 m/s 718 mmHg 89%
    19:00 +2°C° 0 mm 2 m/s 718 mmHg 89%
    20:00 +2°C° 0 mm 2 m/s 718 mmHg 90%
    21:00 +2°C° 0 mm 2 m/s 718 mmHg 91%
    22:00 +2°C° 0 mm 2 m/s 718 mmHg 91%
    23:00 +2°C° 0 mm 2 m/s 718 mmHg 92%
    Mostrar mais